When you browse on this site, cookies collect data to enhance your experience and personalize the content and advertising you see.
Visit our Privacy Policy to learn more. By continuing to use the site, you agree to this use of cookies and data.
  • In Hungary
  • List of Countries
  • For 7 days
  • Water Temperature
  • Weather Map
  • News
  • Weather Widgets
  • user-avatar
    Login

    Hourly Weather Miyakibashevo

    Today, 21 October, Monday

    Time Temperature Precipitation Wind Pressure Humidity
    00:00 -1°C° 0 mm 4 mps 750 mmHg 61%
    01:00 -1°C° 0 mm 4 mps 750 mmHg 61%
    02:00 -1°C° 0 mm 5 mps 750 mmHg 62%
    03:00 -1°C° 0 mm 5 mps 750 mmHg 62%
    04:00 -1°C° 0 mm 5 mps 749 mmHg 62%
    05:00 -1°C° 0 mm 5 mps 749 mmHg 63%
    06:00 -2°C° 0 mm 5 mps 749 mmHg 64%
    07:00 -2°C° 0 mm 5 mps 749 mmHg 65%
    08:00 -1°C° 0 mm 5 mps 749 mmHg 64%
    09:00 0°C° 0 mm 5 mps 749 mmHg 62%
    10:00 -1°C° 0 mm 6 mps 749 mmHg 61%
    11:00 +1°C° 0 mm 6 mps 748 mmHg 62%
    12:00 +1°C° 0 mm 6 mps 748 mmHg 63%
    13:00 +1°C° 0 mm 6 mps 748 mmHg 64%
    14:00 +2°C° 0 mm 6 mps 748 mmHg 65%
    15:00 +2°C° 0 mm 6 mps 747 mmHg 65%
    16:00 +3°C° 0 mm 6 mps 747 mmHg 66%
    17:00 +3°C° 0 mm 6 mps 747 mmHg 66%
    18:00 +3°C° 0 mm 6 mps 747 mmHg 67%
    19:00 +3°C° 0 mm 6 mps 746 mmHg 67%
    20:00 +2°C° 0 mm 6 mps 746 mmHg 68%
    21:00 +2°C° 0 mm 6 mps 746 mmHg 70%
    22:00 +2°C° 0 mm 6 mps 745 mmHg 71%
    23:00 +2°C° 0 mm 6 mps 745 mmHg 71%

    Tomorrow, 22 October, Tuesday

    Time Temperature Precipitation Wind Pressure Humidity
    00:00 +2°C° 0 mm 7 mps 744 mmHg 71%
    01:00 +2°C° 0 mm 7 mps 744 mmHg 71%
    02:00 +2°C° 0 mm 7 mps 743 mmHg 71%
    03:00 +2°C° 0 mm 8 mps 743 mmHg 70%
    04:00 +2°C° 0 mm 8 mps 743 mmHg 70%
    05:00 +2°C° 0 mm 8 mps 742 mmHg 71%
    06:00 +2°C° 0 mm 8 mps 741 mmHg 72%
    07:00 +2°C° 0 mm 8 mps 741 mmHg 74%
    08:00 +2°C° 0.1 mm 8 mps 741 mmHg 76%
    09:00 +4°C° 0.1 mm 8 mps 741 mmHg 79%
    10:00 +4°C° 0.1 mm 7 mps 741 mmHg 81%
    11:00 +4°C° 0.5 mm 7 mps 741 mmHg 84%
    12:00 +4°C° 0.5 mm 7 mps 740 mmHg 87%
    13:00 +4°C° 0.5 mm 6 mps 740 mmHg 90%
    14:00 +4°C° 0.4 mm 6 mps 740 mmHg 92%
    15:00 +5°C° 0.4 mm 5 mps 740 mmHg 93%
    16:00 +5°C° 0.4 mm 5 mps 740 mmHg 95%
    17:00 +6°C° 0 mm 4 mps 740 mmHg 95%
    18:00 +6°C° 0 mm 4 mps 740 mmHg 96%
    19:00 +7°C° 0 mm 3 mps 741 mmHg 97%
    20:00 +7°C° 0 mm 3 mps 741 mmHg 97%
    21:00 +7°C° 0 mm 3 mps 741 mmHg 97%
    22:00 +7°C° 0 mm 2 mps 741 mmHg 97%
    23:00 +6°C° 0 mm 2 mps 741 mmHg 94%

    Day after tomorrow, 23 October, Wednesday

    Time Temperature Precipitation Wind Pressure Humidity
    00:00 +6°C° 0 mm 2 mps 741 mmHg 92%
    01:00 +7°C° 0 mm 1 mps 741 mmHg 89%
    02:00 +6°C° 0 mm 1 mps 741 mmHg 88%
    03:00 +6°C° 0 mm 1 mps 741 mmHg 87%
    04:00 +6°C° 0 mm 1 mps 742 mmHg 86%
    05:00 +5°C° 0 mm 1 mps 742 mmHg 87%
    06:00 +4°C° 0 mm 1 mps 742 mmHg 89%
    07:00 +4°C° 0 mm 1 mps 742 mmHg 90%
    08:00 +4°C° 0 mm 1 mps 742 mmHg 85%
    09:00 +5°C° 0 mm 1 mps 742 mmHg 81%
    10:00 +5°C° 0 mm 1 mps 742 mmHg 76%
    11:00 +6°C° 0 mm 1 mps 742 mmHg 70%
    12:00 +6°C° 0 mm 2 mps 742 mmHg 64%
    13:00 +7°C° 0 mm 3 mps 742 mmHg 58%
    14:00 +7°C° 0 mm 3 mps 741 mmHg 61%
    15:00 +7°C° 0 mm 3 mps 741 mmHg 64%
    16:00 +7°C° 0 mm 3 mps 741 mmHg 67%
    17:00 +5°C° 0 mm 3 mps 741 mmHg 73%
    18:00 +4°C° 0 mm 3 mps 741 mmHg 79%
    19:00 +3°C° 0 mm 3 mps 741 mmHg 85%
    20:00 +3°C° 0 mm 4 mps 740 mmHg 84%
    21:00 +2°C° 0 mm 5 mps 740 mmHg 84%
    22:00 +2°C° 0 mm 5 mps 740 mmHg 84%
    23:00 +3°C° 0.2 mm 6 mps 740 mmHg 85%

    24 October, Thursday

    Time Temperature Precipitation Wind Pressure Humidity
    00:00 +3°C° 0.2 mm 6 mps 739 mmHg 86%
    01:00 +3°C° 0.2 mm 7 mps 739 mmHg 87%
    02:00 +3°C° 0 mm 6 mps 739 mmHg 88%
    03:00 +3°C° 0 mm 6 mps 739 mmHg 90%
    04:00 +4°C° 0 mm 6 mps 739 mmHg 92%
    05:00 +5°C° 0 mm 5 mps 739 mmHg 93%
    06:00 +5°C° 0 mm 5 mps 739 mmHg 95%
    07:00 +5°C° 0 mm 4 mps 739 mmHg 96%
    08:00 +6°C° 0 mm 4 mps 739 mmHg 94%
    09:00 +6°C° 0 mm 4 mps 739 mmHg 93%
    10:00 +7°C° 0 mm 4 mps 740 mmHg 91%
    11:00 +8°C° 0 mm 4 mps 740 mmHg 88%
    12:00 +8°C° 0 mm 4 mps 740 mmHg 85%
    13:00 +10°C° 0 mm 4 mps 740 mmHg 83%
    14:00 +10°C° 0 mm 3 mps 740 mmHg 82%
    15:00 +10°C° 0 mm 3 mps 740 mmHg 81%
    16:00 +10°C° 0 mm 2 mps 740 mmHg 80%
    17:00 +10°C° 0 mm 2 mps 741 mmHg 82%
    18:00 +9°C° 0 mm 2 mps 741 mmHg 84%
    19:00 +10°C° 0 mm 1 mps 741 mmHg 85%
    20:00 +10°C° 0 mm 1 mps 741 mmHg 87%
    21:00 +9°C° 0 mm 1 mps 741 mmHg 88%
    22:00 +9°C° 0 mm 1 mps 742 mmHg 89%
    23:00 +9°C° 0 mm 1 mps 742 mmHg 88%

    25 October, Friday

    Time Temperature Precipitation Wind Pressure Humidity
    00:00 +9°C° 0 mm 1 mps 742 mmHg 88%
    01:00 +9°C° 0 mm 1 mps 742 mmHg 87%
    02:00 +9°C° 0 mm 1 mps 742 mmHg 87%
    03:00 +8°C° 0 mm 1 mps 742 mmHg 86%
    04:00 +7°C° 0 mm 2 mps 742 mmHg 86%
    05:00 +7°C° 0 mm 2 mps 742 mmHg 87%
    06:00 +7°C° 0 mm 2 mps 742 mmHg 87%
    07:00 +7°C° 0 mm 2 mps 742 mmHg 88%
    08:00 +7°C° 0 mm 2 mps 742 mmHg 85%
    09:00 +8°C° 0 mm 3 mps 742 mmHg 82%
    10:00 +8°C° 0 mm 3 mps 742 mmHg 78%
    11:00 +9°C° 0 mm 3 mps 742 mmHg 75%
    12:00 +8°C° 0 mm 4 mps 742 mmHg 71%
    13:00 +9°C° 0 mm 5 mps 742 mmHg 68%
    14:00 +10°C° 0 mm 4 mps 742 mmHg 70%
    15:00 +10°C° 0 mm 4 mps 742 mmHg 72%
    16:00 +8°C° 0 mm 4 mps 741 mmHg 74%
    17:00 +8°C° 0 mm 4 mps 742 mmHg 79%
    18:00 +7°C° 0 mm 4 mps 742 mmHg 83%
    19:00 +7°C° 0 mm 3 mps 742 mmHg 87%
    20:00 +7°C° 0 mm 3 mps 742 mmHg 89%
    21:00 +5°C° 0 mm 3 mps 742 mmHg 90%
    22:00 +5°C° 0 mm 3 mps 742 mmHg 92%
    23:00 +5°C° 0 mm 3 mps 742 mmHg 93%

    26 October, Saturday

    Time Temperature Precipitation Wind Pressure Humidity
    00:00 +5°C° 0 mm 2 mps 742 mmHg 94%
    01:00 +5°C° 0 mm 2 mps 742 mmHg 95%
    02:00 +5°C° 0 mm 2 mps 743 mmHg 95%
    03:00 +5°C° 0 mm 2 mps 743 mmHg 95%
    04:00 +5°C° 0 mm 2 mps 743 mmHg 95%
    05:00 +5°C° 0 mm 2 mps 743 mmHg 95%
    06:00 +4°C° 0 mm 2 mps 744 mmHg 95%
    07:00 +4°C° 0 mm 2 mps 744 mmHg 95%
    08:00 +5°C° 0 mm 2 mps 744 mmHg 93%
    09:00 +6°C° 0 mm 2 mps 744 mmHg 90%
    10:00 +7°C° 0 mm 3 mps 744 mmHg 87%
    11:00 +8°C° 0 mm 3 mps 744 mmHg 83%
    12:00 +8°C° 0 mm 4 mps 744 mmHg 79%
    13:00 +9°C° 0 mm 5 mps 743 mmHg 75%
    14:00 +9°C° 0 mm 5 mps 743 mmHg 76%
    15:00 +9°C° 0 mm 5 mps 742 mmHg 76%
    16:00 +9°C° 0 mm 5 mps 742 mmHg 77%
    17:00 +9°C° 0 mm 6 mps 741 mmHg 81%
    18:00 +9°C° 0 mm 6 mps 741 mmHg 85%
    19:00 +9°C° 0 mm 7 mps 741 mmHg 89%
    20:00 +9°C° 0 mm 7 mps 740 mmHg 88%
    21:00 +9°C° 0 mm 8 mps 740 mmHg 86%
    22:00 +9°C° 0 mm 8 mps 739 mmHg 84%
    23:00 +9°C° 0 mm 8 mps 739 mmHg 84%

    27 October, Sunday

    Time Temperature Precipitation Wind Pressure Humidity
    00:00 +9°C° 0 mm 8 mps 739 mmHg 83%
    01:00 +9°C° 0 mm 8 mps 739 mmHg 83%
    02:00 +8°C° 0 mm 7 mps 739 mmHg 84%
    03:00 +8°C° 0 mm 7 mps 739 mmHg 85%
    04:00 +8°C° 0 mm 7 mps 739 mmHg 86%
    05:00 +8°C° 0 mm 7 mps 739 mmHg 87%
    06:00 +8°C° 0 mm 6 mps 739 mmHg 88%
    07:00 +8°C° 0 mm 6 mps 739 mmHg 89%
    08:00 +8°C° 0 mm 6 mps 739 mmHg 88%
    09:00 +8°C° 0 mm 6 mps 739 mmHg 87%
    10:00 +9°C° 0 mm 6 mps 739 mmHg 86%
    11:00 +9°C° 0 mm 7 mps 739 mmHg 83%
    12:00 +9°C° 0 mm 7 mps 738 mmHg 80%
    13:00 +10°C° 0 mm 7 mps 738 mmHg 78%
    14:00 +10°C° 0 mm 7 mps 738 mmHg 76%
    15:00 +10°C° 0 mm 7 mps 737 mmHg 74%
    16:00 +11°C° 0 mm 7 mps 737 mmHg 72%
    17:00 +10°C° 0 mm 8 mps 737 mmHg 71%
    18:00 +10°C° 0 mm 8 mps 737 mmHg 70%
    19:00 +10°C° 0 mm 8 mps 737 mmHg 69%
    20:00 +9°C° 0 mm 8 mps 736 mmHg 69%
    21:00 +9°C° 0 mm 8 mps 736 mmHg 69%
    22:00 +9°C° 0 mm 8 mps 736 mmHg 69%
    23:00 +9°C° 0 mm 7 mps 736 mmHg 69%
    Show more